Theta_e
320 322 320 322 324 324 326 327 326 329 331 329 326 323 330 335 322 320 336 338 327 335 353 353 350 353 352 351 352 352 353 354 354 354 355 355 354 354 354 354 354 355 355 356 356 356 354 354 353 353 352 353 353 354 354 353 352 351 351 352 354 355 356 357 357 356 357 358 360 360 360 360 359 357 355 354 353 354 355 355 355 354 352 350 351 352 352
319 321 321 322 323 323 325 327 329 331 333 332 333 334 338 340 334 332 339 341 338 346 353 351 349 349 348 349 350 351 353 353 352 354 355 354 352 352 351 351 352 352 354 355 355 355 355 354 353 353 352 352 353 353 353 353 353 353 351 349 350 350 352 354 355 356 357 360 361 361 361 362 361 360 358 356 355 355 355 355 354 354 354 353 352 351 351
317 320 321 321 322 321 321 324 329 331 333 333 336 339 340 339 339 342 341 342 347 352 351 350 349 348 349 349 350 352 353 351 351 351 351 351 352 351 350 350 351 351 352 353 352 352 353 352 352 353 352 352 352 353 354 354 354 354 353 352 351 350 350 351 352 352 354 357 359 359 360 361 360 359 359 357 356 357 356 357 356 356 355 355 353 351 350
315 319 321 320 320 320 318 321 327 330 330 332 335 340 342 340 340 343 339 337 345 351 349 349 349 349 350 349 349 351 350 349 350 350 349 350 351 349 348 348 348 348 348 349 348 347 347 347 348 348 348 349 349 350 352 352 353 354 353 353 353 352 352 352 352 351 350 352 354 355 357 358 357 358 358 357 357 356 356 357 357 357 356 355 354 352 350
315 318 320 319 318 317 316 320 327 331 332 333 336 339 342 343 343 341 336 338 348 352 347 348 351 351 350 349 349 349 348 349 350 349 349 348 347 346 346 345 344 344 344 345 344 343 343 343 344 344 345 345 346 347 348 348 350 351 351 352 352 352 352 352 352 352 351 351 351 352 354 354 355 355 355 356 356 356 355 356 357 357 357 355 354 353 351
316 318 320 319 317 316 317 321 327 331 331 332 335 339 340 342 342 341 340 344 350 349 347 348 350 350 349 348 347 347 347 347 348 348 347 346 344 344 343 342 343 342 342 341 341 341 341 341 341 342 343 343 343 344 343 343 344 345 345 346 347 348 349 350 351 351 351 350 350 350 350 351 352 353 353 354 355 355 355 356 356 357 357 356 356 355 353
317 319 319 316 316 317 320 322 324 327 329 330 336 341 341 341 341 342 343 345 347 348 347 347 348 348 347 344 343 344 344 345 346 347 346 344 342 340 340 339 340 340 340 340 340 340 340 340 340 341 341 341 341 340 340 338 339 339 339 340 341 341 342 344 346 347 348 347 348 347 348 348 349 349 351 352 353 354 354 354 355 356 356 356 357 357 356
318 318 316 317 319 320 321 321 322 325 328 330 333 337 338 339 341 343 344 345 346 347 345 344 344 344 342 341 342 342 342 343 343 342 342 342 340 338 338 337 337 339 338 338 338 337 337 337 337 338 339 339 339 338 337 336 335 336 336 336 336 336 336 337 339 340 341 342 343 344 344 345 346 347 348 349 351 352 352 352 354 355 355 355 355 356 357
318 314 314 319 321 320 320 322 323 325 326 327 329 331 335 339 341 342 344 345 345 344 344 342 340 339 340 341 340 338 339 340 340 339 339 338 336 334 333 333 334 335 335 334 334 334 334 334 334 334 335 335 336 336 335 335 334 333 333 333 332 331 331 332 332 334 335 336 338 339 340 341 341 342 344 346 349 351 352 352 354 354 354 355 355 356 357
317 314 315 319 319 318 321 323 323 324 324 323 325 329 334 339 340 341 343 344 344 343 342 340 338 339 343 344 338 334 336 337 337 337 337 335 333 330 329 329 330 331 331 331 331 331 331 331 331 331 331 331 333 333 333 333 333 332 331 331 330 329 329 329 328 330 331 332 332 334 335 336 336 337 338 340 343 347 349 351 351 352 352 353 353 354 354
316 314 314 316 318 321 325 325 323 323 322 322 324 326 329 335 339 340 341 342 342 341 340 340 341 343 347 345 337 332 333 335 334 334 333 332 331 329 328 328 328 328 329 328 328 328 328 328 329 329 329 329 329 330 330 331 331 331 330 330 329 329 330 329 329 328 329 330 330 329 329 330 330 331 333 335 338 341 344 346 347 347 348 348 348 348 347
315 314 313 315 320 324 327 325 323 322 322 322 323 323 325 330 335 339 340 341 341 341 339 339 342 345 345 342 335 331 333 335 334 333 331 330 330 329 329 328 327 327 327 326 326 326 326 326 326 326 327 327 327 326 327 327 328 329 329 329 329 328 329 330 330 329 328 329 330 330 330 330 330 328 328 330 333 336 339 340 341 342 344 345 345 345 344
314 313 312 315 321 326 326 325 323 322 322 320 319 321 325 326 329 336 339 339 341 340 337 338 342 341 338 335 332 332 333 334 334 334 332 330 330 330 329 328 327 326 326 325 325 325 325 324 324 324 325 326 325 324 324 325 325 326 327 328 328 328 328 327 328 329 329 329 330 330 331 332 331 329 327 328 330 333 336 338 338 340 342 343 343 343 342
314 314 313 314 321 326 326 325 324 325 323 321 321 324 327 325 328 335 338 337 338 338 337 338 340 336 332 331 332 332 332 333 333 333 333 332 331 331 329 328 327 325 325 324 324 323 324 323 323 324 325 325 324 324 323 322 323 324 325 326 327 327 327 326 326 327 328 328 328 329 330 331 331 331 331 332 333 334 336 338 339 340 339 338 339 340 339
315 313 312 314 320 325 327 326 327 328 326 325 325 327 327 327 330 335 336 337 337 337 337 337 336 333 330 330 331 331 331 332 332 331 332 332 330 329 329 327 326 325 324 324 323 323 323 323 323 323 324 325 325 324 323 322 321 322 323 324 325 326 326 325 325 325 325 326 326 327 329 330 331 331 332 333 334 335 336 337 338 337 333 332 332 333 333
316 313 315 319 323 325 325 326 327 327 325 325 325 326 327 328 332 334 334 335 336 336 336 336 334 332 330 329 329 329 329 330 330 330 329 329 328 327 327 325 325 325 324 324 323 324 324 324 324 323 324 325 325 324 324 323 322 322 322 322 323 323 324 324 324 323 323 324 325 325 327 328 329 330 330 331 332 334 335 336 336 335 333 332 331 330 331
319 319 322 324 326 325 324 324 324 324 324 324 324 326 327 329 332 333 333 334 334 333 333 332 331 330 328 327 328 328 327 328 329 328 327 326 326 326 325 325 324 323 324 324 323 323 324 324 324 323 323 324 324 323 322 322 322 322 322 321 322 322 322 323 323 323 322 322 322 323 324 325 327 328 329 330 330 331 332 333 334 334 334 333 332 332 331
321 323 325 325 326 325 324 323 323 323 324 324 325 327 329 330 331 332 332 332 330 329 330 331 330 329 326 325 325 325 326 327 327 326 326 326 325 325 325 324 323 322 323 323 322 322 322 321 321 321 320 321 322 321 321 320 321 321 321 322 322 321 322 322 322 323 323 322 321 321 321 322 323 324 326 328 329 329 329 330 331 331 332 332 332 332 331
320 323 326 326 325 325 324 324 324 324 323 323 325 328 330 330 330 331 330 330 329 328 328 329 329 327 325 324 326 326 325 326 326 325 325 324 324 324 324 324 323 322 322 321 320 319 319 318 318 318 318 318 319 319 318 319 319 320 321 322 322 321 322 322 322 323 322 321 321 321 320 320 321 321 322 324 326 327 328 328 329 329 329 329 329 330 330
321 325 327 325 324 324 324 324 324 323 323 324 325 327 329 330 330 330 330 329 329 328 328 327 326 325 324 325 326 326 325 325 324 323 323 323 324 324 324 324 323 322 321 321 320 319 318 318 317 316 316 316 316 316 316 317 319 320 320 321 321 321 322 322 322 322 321 320 321 321 321 321 321 320 321 322 324 324 324 324 325 327 327 327 327 326 327
322 325 326 325 325 325 324 323 324 324 324 323 323 324 326 328 328 328 329 329 329 329 328 327 326 324 324 325 325 324 324 326 325 324 323 322 322 321 321 321 322 323 322 321 321 320 319 318 317 317 317 315 315 315 315 316 318 320 320 320 321 321 321 322 322 322 322 321 321 321 321 322 322 320 319 319 322 323 321 318 318 320 322 324 324 323 325
321 324 326 326 326 327 325 323 324 325 324 323 323 322 323 324 325 326 327 327 328 329 329 328 327 325 325 326 325 324 324 325 325 325 324 322 320 319 319 321 323 324 323 322 321 320 319 319 318 318 317 316 315 315 314 315 316 318 319 320 320 320 320 321 321 321 322 321 321 321 321 322 323 322 320 317 317 319 318 316 315 315 316 318 318 319 322
324 326 326 326 326 326 325 323 323 324 325 325 324 324 323 322 323 324 324 325 326 327 328 328 328 328 327 327 326 325 325 324 325 325 324 322 321 320 320 322 323 323 322 321 321 321 320 319 318 318 317 316 316 315 314 315 315 316 318 318 318 319 319 318 319 320 321 321 321 322 322 322 322 323 323 321 318 316 315 315 316 316 316 316 316 316 318
325 326 325 326 326 325 324 323 323 324 324 324 324 324 324 324 323 323 324 323 324 325 326 327 327 327 327 327 327 326 325 324 324 324 323 323 322 320 320 321 321 321 321 320 320 320 319 319 318 317 317 316 315 314 314 314 315 315 316 317 318 318 318 317 317 318 319 319 320 320 321 321 321 321 322 323 322 320 317 316 316 316 316 316 317 317 316
326 325 325 325 325 324 323 323 323 323 324 324 324 323 323 324 324 324 324 324 323 323 324 325 325 325 326 326 327 326 325 324 323 323 322 322 321 320 319 319 320 320 321 320 320 319 319 318 318 317 317 316 315 314 314 313 314 314 314 315 317 317 318 318 318 317 318 318 318 318 319 320 320 320 321 321 322 322 321 319 317 316 316 316 316 316 316
325 325 324 324 324 323 323 323 323 322 323 323 323 323 323 323 323 323 324 324 323 323 323 323 323 323 323 324 325 326 325 324 323 322 322 322 321 320 319 319 319 321 321 320 319 319 318 318 318 317 317 316 314 314 313 313 313 313 313 314 314 313 313 315 317 317 317 317 317 317 318 318 318 319 319 319 319 320 321 321 320 319 318 317 316 316 315
324 324 323 323 323 322 322 322 322 322 322 322 322 322 322 322 322 323 323 323 323 323 323 322 322 322 322 322 323 324 324 325 324 323 323 322 322 321 320 319 320 321 321 320 319 318 318 318 318 317 317 315 314 313 313 312 313 313 313 313 313 311 310 311 314 316 316 316 316 316 316 317 317 317 318 318 318 318 319 320 320 320 320 320 319 317 316
323 323 323 323 322 322 322 322 322 322 322 321 321 321 320 321 321 321 322 322 323 323 323 323 323 322 322 322 322 322 322 323 323 324 324 323 322 321 320 320 320 321 321 320 319 319 318 318 318 317 316 315 313 313 312 312 313 313 312 312 313 313 312 312 313 314 315 315 315 315 315 315 316 316 317 317 317 318 318 318 318 318 318 319 319 317 316
322 322 322 323 323 323 323 322 322 322 321 321 321 320 320 320 319 319 320 321 321 321 323 322 322 323 323 322 322 322 321 321 321 322 323 323 322 322 321 321 321 320 320 320 320 319 318 318 318 318 316 315 313 312 312 312 312 312 312 311 311 312 313 313 313 314 314 314 314 313 312 313 314 315 316 316 316 316 317 317 316 316 316 316 317 316 317
322 322 322 322 323 323 322 321 321 321 321 321 321 320 319 319 318 319 320 320 320 320 320 320 320 321 322 322 323 322 322 321 321 321 322 323 323 323 323 322 321 320 320 320 319 319 318 318 318 317 316 314 313 312 312 312 311 311 311 311 311 310 309 308 310 312 313 313 313 312 312 313 314 314 314 315 315 315 315 315 315 315 315 315 315 315 316
322 322 322 322 322 321 321 321 320 320 320 320 319 319 319 318 318 318 319 319 319 319 319 318 319 319 320 321 322 323 322 322 322 321 321 322 322 322 322 322 321 320 320 320 319 319 319 318 317 316 314 313 312 312 311 311 311 311 311 311 310 309 306 304 307 310 311 311 312 313 313 314 314 314 313 314 314 314 314 314 314 314 314 315 314 314 315
322 322 322 322 321 320 320 320 320 319 319 319 318 318 318 318 317 317 317 317 318 318 317 317 317 318 318 319 319 320 321 322 322 322 322 322 322 322 321 320 320 320 320 320 320 319 318 317 316 314 313 312 311 311 311 310 310 311 310 310 310 310 307 306 307 308 309 310 311 312 312 312 313 313 313 313 312 313 313 313 313 313 313 313 313 313 313
322 322 321 321 321 320 320 320 319 318 318 318 317 318 317 317 316 316 316 316 316 316 316 316 316 317 317 317 317 317 318 320 321 322 322 322 322 321 320 319 319 319 319 320 320 319 317 316 315 313 312 311 310 310 310 309 309 310 310 309 310 310 309 307 306 307 308 310 310 310 310 310 310 311 311 311 311 311 311 311 311 311 311 311 312 312 311
322 321 321 321 321 320 319 318 318 317 317 317 317 317 316 316 316 315 315 315 315 314 315 315 315 315 315 315 316 316 316 317 318 320 321 322 322 321 320 319 318 318 318 319 319 318 317 316 314 312 311 310 310 309 309 308 308 309 309 309 309 309 309 308 308 308 309 310 309 308 308 308 308 309 309 309 310 310 310 310 310 310 310 310 311 311 310
322 321 321 320 319 319 318 318 317 317 316 315 315 315 315 315 315 314 314 314 313 313 313 314 314 314 314 314 315 315 315 315 316 317 318 320 321 321 320 319 318 317 317 317 317 316 315 314 313 311 310 310 309 308 308 308 308 308 308 307 307 307 307 307 307 308 308 308 307 308 307 307 307 307 307 308 308 308 308 309 308 308 309 309 309 309 309
320 320 320 319 318 317 317 317 316 316 315 315 314 314 314 314 314 313 313 313 313 313 313 313 313 313 313 313 313 313 313 314 315 315 316 318 320 320 319 318 317 317 316 316 316 315 314 312 310 309 309 308 307 307 307 307 307 307 306 305 305 305 305 306 306 306 306 306 306 307 306 306 306 306 307 307 307 307 307 307 307 307 307 307 307 307 307
319 319 318 318 317 316 316 315 315 315 314 314 314 313 313 313 313 312 312 312 312 312 312 312 312 312 313 313 312 312 312 313 313 313 314 317 319 319 318 317 316 316 316 316 314 313 312 310 308 307 307 307 307 307 306 304 304 304 304 303 304 305 305 305 306 306 306 306 306 305 305 305 305 306 306 306 306 305 305 305 305 305 305 305 305 305 305
317 317 316 316 316 315 315 315 314 314 314 313 313 313 313 313 312 311 311 310 310 311 311 311 311 312 312 312 312 312 312 312 312 312 313 316 318 318 317 317 316 315 315 314 313 311 310 307 306 306 307 307 307 306 303 300 300 302 303 303 304 304 305 305 306 305 305 305 304 304 304 304 304 304 304 304 304 304 303 303 303 303 303 303 303 303 303
317 316 315 315 314 314 314 313 313 313 313 313 312 312 311 311 311 310 310 310 310 310 310 310 311 311 311 312 312 312 312 311 311 312 313 314 316 317 317 315 315 315 314 312 311 309 308 306 306 307 307 306 306 305 301 298 298 301 302 302 303 304 304 304 304 304 303 303 303 302 302 302 302 302 302 302 302 302 301 301 301 301 301 301 301 301 301
315 315 314 313 313 313 313 313 313 312 312 311 311 311 310 310 310 310 311 310 310 310 310 310 310 310 311 311 311 312 311 311 311 312 312 313 314 315 315 314 313 313 312 310 309 308 306 305 306 306 305 304 304 303 300 297 298 301 302 302 302 303 303 303 303 302 302 302 301 301 301 301 300 300 300 300 300 300 300 300 299 299 299 299 299 299 299
314 313 313 313 313 313 312 312 312 311 311 310 310 311 310 311 310 311 310 310 310 310 309 310 310 310 310 310 310 311 311 311 311 312 312 312 313 313 313 312 312 311 310 309 308 306 304 304 305 304 303 302 303 302 299 298 299 301 301 301 302 302 301 301 301 301 301 300 300 300 300 299 299 299 299 299 299 298 298 298 298 298 298 298 298 298 298
313 313 312 312 312 312 311 311 310 310 310 310 310 310 310 310 310 310 310 310 310 309 309 309 309 310 310 310 310 311 311 311 311 312 311 311 312 312 312 310 310 309 308 307 306 304 303 303 303 303 302 302 301 299 299 299 300 301 301 301 301 301 300 300 300 300 300 299 299 299 298 298 298 298 298 298 297 297 297 297 297 297 297 297 297 297 297
312 312 312 312 311 310 310 310 310 310 310 310 310 310 310 310 310 310 309 309 309 309 309 309 309 309 310 310 310 311 312 312 311 311 311 310 310 310 309 308 308 307 306 304 303 303 302 302 302 302 301 300 298 298 299 300 300 300 300 300 300 300 299 299 299 299 298 298 298 298 297 297 297 297 297 297 297 297 296 296 296 296 296 296 296 296 296
312 311 311 310 310 309 309 309 309 309 309 309 309 309 309 309 309 309 309 309 309 309 309 309 309 309 310 310 310 311 311 311 311 310 309 308 307 307 307 306 305 304 303 302 301 301 301 300 300 300 300 298 298 298 299 300 299 299 299 299 299 299 299 298 298 298 297 297 297 297 296 296 296 296 296 296 296 296 296 296 296 296 295 295 295 295 295
311 310 309 309 309 309 308 308 308 308 308 308 308 308 308 308 308 308 308 309 309 309 309 309 309 309 309 310 310 310 310 310 310 309 308 308 307 306 305 305 304 303 301 300 299 299 298 298 298 299 298 297 298 299 300 299 299 299 299 298 298 298 298 298 298 297 297 297 296 296 296 296 296 296 295 295 295 295 295 295 295 295 295 295 295 295 295
310 309 308 308 308 308 308 308 308 307 308 308 308 308 308 308 308 308 308 308 308 308 308 308 308 308 308 308 308 308 307 308 308 307 307 306 306 305 304 304 303 302 300 299 298 297 297 296 297 298 298 298 298 299 299 299 299 299 298 298 298 298 298 297 297 297 297 297 296 296 296 296 296 296 295 295 295 295 295 294 294 294 294 294 295 294 294
310 309 308 308 308 308 308 308 308 308 308 308 308 308 308 308 307 307 307 307 307 307 306 306 306 306 306 307 307 306 305 305 306 306 305 304 303 303 303 303 302 300 299 300 300 299 299 299 299 299 299 299 299 300 299 299 299 298 298 298 298 298 297 297 297 297 297 297 296 296 296 296 296 295 295 295 295 295 294 294 294 294 294 294 294 294 294
309 309 308 308 308 308 308 308 308 308 308 308 307 307 307 307 307 307 306 306 306 306 305 305 306 305 305 305 305 305 305 305 305 305 304 304 303 303 303 302 301 301 300 300 300 300 300 300 300 300 299 299 300 300 299 299 298 298 298 298 298 298 297 297 297 297 297 296 296 296 296 296 295 295 295 295 295 294 294 294 294 294 294 294 294 294 293
308 308 308 307 307 308 308 308 307 307 307 307 307 307 307 307 306 306 306 306 306 305 305 305 305 305 305 305 305 304 304 304 304 304 304 303 303 302 302 302 301 301 301 301 301 300 299 299 300 300 300 300 300 300 299 299 298 298 298 298 298 297 297 297 297 296 296 296 296 296 296 295 295 295 295 295 295 294 294 294 294 294 293 293 293 293 293
308 308 307 307 307 307 307 307 307 307 307 307 307 306 306 306 306 306 306 306 305 305 305 304 304 304 304 304 304 304 303 303 303 303 303 302 302 302 302 301 301 301 301 301 301 300 299 298 299 300 300 301 301 300 300 299 299 298 298 298 297 297 297 296 296 295 296 296 296 295 295 295 295 295 295 295 295 295 294 294 294 293 293 293 293 293 293
308 308 307 307 306 306 306 306 306 306 306 306 306 306 306 306 306 306 305 305 305 304 304 304 304 304 303 303 303 303 303 302 302 302 302 302 301 301 301 301 301 302 302 301 301 301 300 300 300 301 301 301 301 301 300 299 299 298 298 298 297 297 297 296 296 296 296 295 295 295 295 295 295 295 295 294 294 294 294 294 293 293 293 293 293 293 293
308 307 306 306 306 305 305 305 305 306 305 305 305 305 305 305 305 305 305 305 304 304 303 303 303 303 303 303 303 302 302 303 302 302 302 302 302 301 302 302 302 302 302 302 302 302 302 301 301 301 301 301 301 301 300 300 299 299 298 298 297 297 297 296 296 296 296 296 295 295 295 295 295 295 295 294 294 294 294 294 293 293 293 293 293 293 292
Wind_Speed
7 7 8 7 5 5 4 3 3 1 3 4 7 6 4 4 6 4 3 9 10 7 10 11 9 9 8 7 6 5 5 5 5 6 7 7 7 7 6 6 6 6 6 6 8 11 12 11 10 10 10 11 12 13 13 14 16 17 17 16 14 13 13 13 13 12 12 11 11 11 10 11 12 13 13 13 13 13 14 14 14 14 14 14 13 13 12
7 7 8 7 5 5 5 6 6 4 3 2 1 0 4 3 3 3 3 7 4 4 9 9 8 8 8 7 6 6 5 5 5 5 6 7 7 7 7 7 7 7 7 8 7 7 9 10 11 11 10 11 12 12 13 14 16 17 19 19 18 17 17 15 13 12 11 10 9 10 10 10 11 12 13 13 13 13 13 14 14 14 14 14 14 13 12
6 5 5 5 4 2 4 7 8 7 6 4 4 4 5 3 3 2 3 6 5 6 7 9 8 8 8 8 7 7 6 5 5 5 5 6 7 8 8 7 7 8 9 10 10 10 9 7 7 7 6 6 6 6 8 11 13 14 16 17 18 19 20 18 17 15 13 12 11 10 11 10 11 12 12 12 13 13 13 13 13 13 14 14 14 14 13
6 2 2 1 0 2 2 7 10 10 9 6 5 6 6 4 2 0 4 5 4 5 6 8 9 8 9 9 8 7 6 5 6 6 7 7 8 9 10 9 9 9 10 12 13 12 12 11 10 9 9 8 5 3 3 4 5 7 10 14 16 18 18 16 17 18 18 18 15 13 12 12 12 12 11 12 13 13 13 14 13 13 14 14 15 15 14
6 3 4 5 4 5 3 5 8 8 8 8 6 5 6 5 3 1 2 1 3 5 6 7 8 8 9 9 7 6 7 6 6 7 8 9 10 10 10 11 11 11 11 13 14 14 13 12 11 9 9 8 7 5 4 3 4 4 5 8 12 14 15 14 15 15 16 17 16 14 14 14 13 12 12 12 14 14 15 15 14 14 14 15 15 15 15
6 4 4 5 5 5 1 4 5 6 7 8 7 6 6 4 4 3 2 3 3 5 7 7 8 8 7 7 6 6 7 6 7 8 9 9 10 11 11 11 11 13 14 15 15 15 15 14 13 11 10 10 10 9 8 6 6 5 5 4 4 5 6 9 12 12 13 15 15 14 14 14 14 13 13 13 13 14 14 15 15 14 14 15 15 16 15
4 3 5 8 6 2 3 5 5 5 5 5 4 5 5 4 4 4 3 1 2 5 6 7 8 7 6 7 6 7 7 6 8 9 9 10 11 11 10 11 13 15 16 17 17 17 16 15 15 13 12 13 13 13 13 12 11 10 10 9 7 7 7 5 6 7 9 11 12 13 14 15 15 15 14 14 14 13 14 15 16 16 16 15 15 15 15
3 4 7 6 2 4 5 3 5 6 4 5 3 1 4 4 3 3 2 2 4 6 7 8 8 7 8 7 5 6 7 7 8 9 9 10 11 11 11 12 14 15 16 17 17 16 15 15 14 14 13 14 15 17 17 16 15 14 15 14 12 12 12 11 10 8 7 6 6 7 10 12 11 11 11 12 11 11 14 16 16 16 16 16 15 14 13
4 6 6 4 2 3 4 3 5 5 4 6 5 1 3 4 3 3 4 4 6 7 7 8 8 8 9 7 6 6 6 7 9 10 11 12 13 15 15 15 15 15 15 16 16 15 15 15 13 13 13 13 15 17 17 16 15 14 16 16 15 15 16 15 14 13 12 11 10 9 8 7 6 6 6 8 9 10 11 12 13 13 14 12 12 12 11
3 6 5 5 6 4 3 4 5 5 5 5 4 2 1 3 4 3 5 6 7 7 7 7 9 10 9 7 6 6 6 8 11 13 15 16 17 18 17 16 16 15 15 16 16 16 17 16 14 14 14 14 15 16 16 15 14 14 14 13 13 14 15 15 15 14 12 12 11 10 9 7 6 5 4 4 6 8 9 9 8 9 9 7 4 5 7
4 6 6 5 5 2 5 5 5 7 6 3 2 3 1 4 5 1 4 6 8 8 6 4 4 6 6 5 6 7 6 8 12 13 15 16 17 17 17 16 16 16 15 16 16 16 16 15 14 13 13 13 15 15 14 13 14 14 12 11 11 12 11 12 13 13 12 11 10 9 8 8 8 7 5 2 3 5 6 7 6 4 4 4 2 1 1
3 4 5 3 1 3 6 7 7 7 6 4 4 4 1 5 7 4 0 4 8 8 8 6 2 1 1 2 6 8 7 7 11 13 15 16 16 16 17 17 16 16 15 16 16 15 14 13 12 11 11 12 13 13 13 12 13 13 12 10 10 10 10 10 11 12 11 11 10 10 9 8 8 7 5 1 3 3 2 4 4 2 3 4 3 3 3
2 3 5 2 3 4 7 9 7 6 4 4 4 2 2 6 8 6 3 3 6 8 9 7 3 3 5 6 8 8 7 7 7 9 13 16 16 16 17 17 15 15 15 15 15 14 13 12 11 11 11 12 13 12 12 12 12 11 10 10 9 9 9 9 10 10 10 9 9 9 9 8 6 6 5 3 3 4 2 2 3 5 6 7 8 9 8
1 2 4 2 4 4 9 9 5 5 4 3 2 4 5 7 7 5 4 2 4 6 7 5 4 6 9 11 12 10 7 7 8 8 10 13 14 16 16 14 13 14 14 15 15 14 12 11 11 10 11 11 11 10 11 11 10 8 8 8 8 8 8 8 9 9 9 9 8 9 9 9 7 7 6 6 6 5 4 5 7 8 10 11 11 11 9
2 3 4 2 2 5 10 10 4 3 4 2 4 6 6 5 5 4 3 1 2 4 5 5 6 9 11 11 12 11 9 9 10 10 10 10 12 14 14 13 12 13 13 13 13 12 11 10 10 10 10 10 10 10 10 9 8 7 7 7 7 7 7 7 7 8 8 8 8 8 8 8 8 9 8 7 7 6 6 7 8 9 11 12 11 10 9
3 2 0 2 3 5 9 8 4 5 5 4 5 6 5 5 4 2 1 1 1 2 3 5 6 8 10 9 9 10 9 9 11 11 10 10 10 12 12 12 11 10 11 11 11 11 10 9 9 9 9 9 9 10 9 7 6 6 5 5 5 6 6 6 6 6 6 6 6 7 7 7 8 8 8 8 8 7 7 7 7 9 10 10 8 8 8
2 3 4 4 3 3 5 5 4 5 5 5 5 5 4 4 3 2 1 3 4 3 4 7 8 8 8 7 7 8 8 8 10 10 10 9 9 11 12 11 10 10 10 11 10 10 9 9 8 8 8 8 9 8 6 5 4 4 4 4 4 4 5 5 5 5 5 5 6 5 5 5 6 6 5 6 6 6 6 6 6 7 7 7 6 6 6
2 2 3 3 3 4 4 4 4 4 6 5 5 5 3 4 4 3 3 6 8 9 9 10 9 8 8 8 8 8 8 8 9 10 9 8 9 10 10 9 8 8 8 8 8 8 8 8 8 8 7 8 7 6 5 4 4 4 4 4 4 4 4 4 4 4 4 4 5 5 4 4 5 5 4 5 5 5 5 5 5 5 4 4 3 4 4
1 2 3 4 3 4 4 3 4 4 5 6 6 5 5 5 4 4 6 7 9 10 10 11 10 10 11 11 9 7 6 7 9 9 7 6 8 9 8 9 9 7 5 5 6 7 7 7 7 7 7 7 7 6 5 5 5 5 4 4 4 4 4 4 4 4 4 4 3 4 4 3 4 4 4 4 5 5 4 4 4 4 3 3 2 2 2
1 2 5 4 3 4 5 4 4 4 6 7 7 6 5 5 6 6 6 5 6 6 7 9 11 11 12 12 11 8 7 8 10 11 8 7 8 8 7 6 6 6 6 7 7 7 7 6 6 7 7 7 6 6 6 6 5 5 5 5 5 5 4 4 4 4 4 4 3 4 4 4 4 5 5 4 5 6 6 5 4 4 3 3 3 3 3
3 3 5 5 4 4 5 6 6 5 5 6 8 7 6 6 6 6 4 3 2 2 4 8 10 10 10 11 11 11 11 11 13 14 15 14 13 13 12 7 4 4 7 8 8 9 8 6 6 7 7 7 7 6 6 6 5 6 6 6 5 5 5 5 5 4 4 4 4 4 4 4 5 6 6 5 4 5 5 5 4 3 3 3 3 4 4
3 2 4 3 2 2 5 7 7 7 6 6 8 8 8 7 5 4 3 2 1 1 2 6 8 9 9 11 11 10 10 13 15 16 17 17 16 15 15 11 7 6 8 9 9 9 8 7 6 6 6 6 6 6 6 6 6 6 6 5 6 6 6 6 6 5 5 5 5 5 4 4 4 5 5 5 4 3 4 4 4 3 3 3 3 3 3
2 5 5 2 1 2 6 6 6 6 6 7 8 9 9 8 7 5 4 3 2 1 0 3 5 5 8 12 12 10 10 14 16 16 17 17 15 14 14 11 9 9 9 9 10 9 8 7 7 6 6 6 5 6 6 6 6 6 5 5 5 5 6 6 6 6 6 5 5 5 5 4 3 2 2 3 4 4 4 4 3 3 3 3 3 3 1
2 4 4 3 2 4 6 5 5 6 5 6 7 8 8 8 8 7 7 6 4 2 1 1 2 3 5 9 12 12 12 14 15 16 16 16 15 16 15 12 11 12 11 10 10 10 9 8 8 7 6 5 5 5 6 6 6 6 5 4 4 4 4 4 4 4 4 5 5 4 4 4 3 2 2 1 1 2 4 4 3 3 3 2 3 2 1
1 4 5 4 4 5 6 4 4 5 5 5 6 7 7 7 7 7 7 7 6 5 3 1 1 1 3 5 8 11 12 13 15 15 15 13 14 16 16 14 13 13 13 12 12 11 10 10 9 8 7 6 5 5 5 6 6 6 5 5 4 4 4 3 3 3 3 3 3 4 4 4 3 3 3 3 1 1 1 1 1 2 2 3 3 3 3
2 4 4 4 4 4 3 2 3 5 5 5 5 5 7 7 6 6 6 6 6 5 4 3 2 0 2 3 5 6 8 12 14 15 14 14 14 16 17 16 15 15 14 13 13 12 12 11 10 9 8 7 6 6 5 5 5 5 5 4 4 4 3 3 3 3 3 3 3 3 3 4 4 4 3 3 4 4 3 2 1 1 2 3 3 4 4
3 3 3 3 3 3 1 1 2 4 4 4 4 4 5 4 4 4 5 5 5 5 4 4 3 1 0 2 4 5 6 8 12 14 15 15 16 18 17 16 15 14 14 13 13 13 12 11 10 9 8 8 7 6 6 5 5 5 4 4 3 3 4 3 2 2 3 3 3 3 4 4 4 4 4 4 4 4 4 4 3 3 3 3 3 3 6
3 3 3 4 3 1 1 2 3 3 3 3 3 3 3 3 3 3 4 5 5 4 4 4 4 2 1 0 3 5 6 8 9 11 13 14 15 15 13 13 13 14 14 13 13 13 13 12 11 10 8 7 7 6 5 4 4 3 3 3 2 2 2 3 3 2 3 3 3 4 4 4 5 5 4 4 4 4 4 4 5 5 5 5 5 7 9
4 3 2 1 1 2 3 3 3 3 2 2 2 2 2 2 2 2 3 4 4 3 4 4 3 2 1 1 1 4 6 8 9 10 11 12 12 12 11 12 14 14 13 13 14 14 14 13 12 11 10 9 7 6 5 4 3 2 2 2 2 2 2 2 2 2 3 3 3 4 4 4 5 5 4 4 4 4 4 4 5 5 6 6 6 8 7
4 3 3 2 2 2 3 3 2 1 1 1 1 1 2 3 2 2 2 3 4 4 4 4 4 3 2 2 2 3 5 6 7 9 10 11 11 12 11 12 13 13 13 14 15 15 15 14 13 12 11 10 9 7 6 4 3 2 1 1 1 2 2 2 2 2 2 2 3 4 4 4 4 4 4 5 4 4 4 4 4 5 7 6 6 6 6
5 4 4 3 3 4 4 3 2 2 1 1 2 2 2 2 2 2 2 2 2 3 4 5 5 4 4 4 3 3 5 6 6 8 9 10 11 12 12 13 14 14 13 14 16 16 15 14 14 13 12 11 10 8 7 5 4 3 2 1 1 2 3 2 1 1 2 3 3 3 4 4 4 4 4 5 5 5 5 5 5 6 6 6 6 6 6
6 6 5 5 4 4 4 3 3 3 2 2 2 2 2 2 3 3 3 3 3 3 4 5 5 5 5 5 5 6 6 6 6 7 9 10 12 13 14 15 16 16 14 15 16 17 15 15 15 14 13 12 11 9 7 6 4 3 2 2 2 2 2 2 1 2 2 2 3 3 3 3 4 4 4 5 5 5 5 5 6 6 6 6 7 5 3
7 6 6 6 6 6 6 5 4 4 3 3 3 3 3 4 4 5 5 5 5 5 6 6 6 5 5 6 6 6 7 7 7 7 8 9 10 12 13 14 16 16 16 16 17 18 18 18 16 15 14 13 11 10 8 6 4 3 3 2 2 2 2 2 2 2 2 3 2 2 2 3 4 5 5 5 5 6 6 6 6 7 6 7 6 4 2
6 5 3 4 4 5 5 4 4 3 3 3 4 5 5 6 6 6 7 7 7 8 8 7 7 7 7 7 7 7 7 8 7 7 8 8 9 10 11 12 13 14 14 15 17 19 19 19 17 16 15 13 11 10 8 6 4 3 3 2 2 2 3 3 3 2 2 2 1 1 2 3 4 5 5 5 6 6 7 7 7 7 7 7 7 5 4
3 1 1 1 2 2 2 3 3 4 4 4 5 6 6 7 7 7 7 8 9 10 9 9 9 9 9 8 8 8 8 9 8 8 9 8 8 8 9 9 11 12 14 16 18 18 18 18 18 17 14 13 11 9 8 6 5 3 3 2 2 2 3 3 3 3 2 2 2 2 3 3 4 5 5 6 7 7 7 7 7 7 8 8 8 7 6
4 3 3 2 3 3 4 4 5 5 5 6 7 7 8 8 9 9 9 10 11 11 11 11 12 12 11 11 11 10 10 10 9 9 10 9 7 7 8 9 11 13 14 15 16 16 16 17 18 17 15 12 10 8 7 7 5 3 2 2 2 3 3 3 3 3 2 2 2 2 3 4 5 6 6 6 7 7 7 7 7 8 8 8 8 8 9
5 4 3 3 4 5 5 6 6 7 8 8 9 9 10 10 10 11 11 12 13 13 13 13 14 15 15 15 15 14 13 12 11 10 10 9 7 7 9 10 11 13 14 14 15 16 15 17 19 18 14 12 10 8 7 8 6 3 3 3 3 3 3 3 3 3 2 1 1 2 4 5 5 5 6 6 6 6 7 8 8 8 8 8 8 9 9
5 4 4 4 4 5 6 7 7 8 9 10 10 10 11 11 12 13 14 14 15 15 14 14 15 15 15 16 16 16 16 15 14 13 12 10 8 9 10 11 12 14 14 14 16 17 16 17 18 15 11 10 10 7 6 7 6 3 3 3 3 3 3 3 3 2 2 1 2 3 4 4 5 5 6 6 6 7 7 7 8 8 8 8 9 9 9
4 4 4 4 5 6 8 8 9 10 10 11 12 12 13 14 15 15 15 15 15 15 15 14 14 14 14 15 16 16 16 16 15 14 13 11 10 11 10 9 10 12 13 15 17 17 16 17 16 12 10 10 10 8 6 6 6 4 3 3 3 3 3 3 3 3 2 2 2 3 4 5 5 6 6 6 6 7 7 7 7 8 8 8 8 8 8
3 3 4 5 6 8 8 9 10 10 11 13 14 15 15 15 15 15 15 15 15 15 15 15 15 15 14 15 15 15 16 15 14 14 14 12 11 11 9 6 5 9 14 18 19 18 17 17 15 12 11 11 10 9 7 7 6 5 4 3 3 3 3 3 3 2 2 2 2 3 4 4 5 5 6 6 6 6 6 6 7 7 7 8 8 8 8
3 3 4 5 6 7 8 9 10 11 12 13 14 14 13 13 13 13 14 14 15 15 15 16 16 16 15 15 15 15 14 13 11 11 11 11 10 11 11 9 10 13 17 20 19 18 17 16 14 13 12 11 9 8 8 6 6 5 4 3 3 3 3 3 2 2 1 1 2 2 3 4 4 5 5 5 6 6 6 6 7 7 7 7 7 8 8
2 2 3 4 5 7 8 9 10 11 11 12 11 11 12 12 13 13 14 14 15 15 16 16 16 16 16 15 15 13 10 8 8 8 8 9 10 11 11 12 15 18 20 20 19 18 16 13 11 11 11 9 9 10 9 6 5 5 5 4 4 3 3 3 2 1 1 1 2 2 3 4 4 5 5 5 5 6 6 6 7 7 7 7 7 8 8
1 2 3 3 5 6 8 9 9 10 10 10 10 10 11 11 12 13 13 14 14 15 15 16 15 15 14 14 13 10 7 6 6 6 6 6 6 8 11 16 18 20 21 20 18 16 14 12 10 10 9 9 10 11 8 5 5 5 5 4 4 3 3 3 2 1 1 1 2 3 3 4 4 4 5 5 6 6 6 7 7 7 7 7 8 8 8
1 1 2 3 5 6 7 8 8 9 10 10 10 10 10 10 11 12 12 13 13 14 14 14 13 12 11 10 10 9 7 7 8 9 10 9 7 9 15 19 19 19 21 20 17 14 13 12 12 11 10 10 11 10 6 4 5 5 4 4 4 3 3 2 2 1 2 2 3 3 4 4 4 5 5 5 5 6 6 7 7 7 7 8 8 8 8
2 1 1 3 4 6 7 7 7 8 8 8 8 8 8 8 9 9 10 10 11 10 10 10 9 7 6 6 6 6 7 8 9 11 12 12 11 14 19 20 18 19 21 21 19 17 17 17 17 14 11 11 11 9 5 4 5 4 4 4 3 3 2 2 2 2 3 3 3 4 4 4 5 5 5 6 6 6 6 7 7 8 8 8 8 8 8
3 2 1 2 3 4 5 5 5 5 5 6 5 4 4 5 6 6 5 6 6 6 6 6 5 3 1 3 4 5 7 7 7 8 10 11 13 16 18 18 17 18 20 19 18 18 18 19 18 15 12 10 10 8 4 3 3 3 2 2 2 2 2 2 2 3 3 3 4 4 5 5 5 6 6 6 7 7 7 7 8 8 8 8 8 8 9
4 3 2 2 3 3 3 2 2 2 2 3 2 2 3 4 4 3 4 4 4 4 3 3 2 1 2 5 8 11 12 10 8 8 11 13 15 15 15 14 16 19 18 16 14 15 16 16 15 14 11 9 7 5 3 3 3 2 2 2 2 2 2 2 3 3 3 3 4 5 5 6 6 6 6 6 7 7 7 7 8 8 8 8 8 8 9
3 3 2 2 2 2 1 1 1 1 2 3 3 3 3 2 3 4 5 5 6 6 6 6 6 6 6 7 10 12 14 12 10 10 12 15 15 14 13 13 15 17 16 13 13 14 15 15 14 13 11 8 5 4 4 3 2 2 2 3 2 2 2 2 3 3 3 3 4 5 5 5 6 6 6 6 7 7 7 7 8 8 8 8 8 9 9
3 2 2 1 1 1 0 0 1 2 3 3 4 4 3 3 4 5 6 7 7 7 8 9 9 9 10 10 11 11 11 10 10 12 14 15 14 13 12 13 15 15 13 12 12 13 13 14 13 12 10 9 6 4 3 2 1 1 2 2 2 2 2 2 2 2 3 3 3 4 4 4 5 5 6 6 6 6 7 7 8 8 8 9 9 9 9
3 2 2 2 2 1 2 2 3 4 4 5 5 5 4 4 5 5 6 7 7 7 8 9 8 8 9 10 10 10 9 9 10 13 15 14 13 12 13 14 15 14 12 11 12 12 13 13 12 11 10 9 7 5 4 3 2 2 1 1 2 2 2 2 2 2 2 2 2 3 3 4 4 5 5 5 6 6 6 7 7 8 8 9 9 9 9
4 3 3 3 3 3 4 4 5 5 5 6 6 5 5 5 5 5 6 6 7 7 7 7 7 8 8 9 9 9 8 9 10 12 13 13 13 12 13 13 14 13 12 11 11 11 12 12 12 12 11 10 9 7 6 4 3 2 2 1 2 2 2 2 2 3 3 3 3 3 3 3 4 4 4 4 5 5 6 7 7 7 8 8 8 8 9
5 4 4 5 5 5 6 6 7 6 6 6 6 5 5 5 6 6 6 6 6 6 7 8 8 8 8 8 8 8 7 7 9 10 11 11 12 12 12 12 12 12 11 11 10 10 11 11 11 12 12 11 9 8 7 5 4 3 3 2 2 2 3 3 3 3 3 3 3 3 2 2 3 3 3 3 4 4 5 5 6 6 7 8 8 8 9
Wind_Direction
101 98 107 107 99 87 76 61 45 72 162 200 226 236 338 332 259 258 192 206 223 192 160 167 169 165 169 171 162 143 133 136 135 138 143 137 127 126 135 137 140 152 160 162 169 178 183 185 182 180 184 188 194 199 201 202 205 211 213 210 208 209 206 205 203 199 202 210 212 213 217 219 222 225 227 228 228 227 225 225 225 226 226 224 222 221 222
125 113 114 113 106 95 84 67 45 44 103 116 159 48 19 357 302 307 236 206 195 129 145 149 147 156 167 165 149 133 142 150 145 149 149 137 132 134 133 136 140 140 134 130 139 158 171 180 185 186 190 196 201 203 204 204 204 207 212 213 214 216 217 216 210 201 201 206 203 202 205 209 217 224 225 226 227 227 226 227 228 228 229 230 228 227 227
152 118 105 113 111 94 82 68 46 41 56 64 63 42 13 348 350 341 212 176 122 105 126 128 132 150 163 163 151 139 144 151 149 152 148 139 137 131 127 129 125 119 118 116 110 105 105 118 138 144 147 161 179 194 206 212 211 208 209 211 212 216 219 219 215 211 210 210 208 208 208 207 213 220 223 224 224 225 225 225 226 226 227 229 231 233 234
187 125 15 59 1 267 124 69 38 31 37 40 52 43 13 356 0 230 190 174 135 120 125 128 134 150 165 164 150 139 140 142 141 134 123 122 119 112 110 109 103 103 106 106 102 96 92 92 98 105 107 109 117 141 179 202 208 210 215 216 216 216 214 211 211 215 218 219 220 220 217 213 213 214 219 223 222 222 225 225 221 221 224 227 230 233 236
216 214 296 307 297 263 203 67 26 19 30 34 47 52 31 12 344 274 203 44 71 121 151 146 140 158 173 161 144 144 145 134 120 109 107 111 109 105 105 105 105 105 101 101 100 97 95 94 95 103 110 108 105 99 100 150 183 190 210 220 221 221 218 210 208 210 213 216 217 217 218 217 213 209 209 216 221 224 227 227 221 217 221 224 226 229 233
231 211 266 278 258 244 187 56 13 359 14 18 31 50 51 38 3 344 333 359 61 151 178 161 151 168 165 143 140 145 141 133 123 117 117 115 108 106 108 107 106 105 102 103 103 101 100 98 95 100 107 106 103 96 94 115 144 136 119 133 168 188 199 204 206 205 207 210 213 217 222 224 223 219 214 214 219 224 229 230 226 221 220 220 221 224 227
242 200 234 242 228 190 80 57 17 352 342 347 17 55 55 40 15 356 320 293 150 191 187 149 151 166 139 127 136 132 130 134 127 121 120 116 110 107 106 105 105 106 107 106 104 102 101 99 98 100 102 101 98 95 94 97 103 106 103 95 89 98 110 128 163 184 196 207 212 217 223 227 231 233 231 225 222 224 231 233 231 229 228 225 224 225 226
243 215 219 229 212 103 104 78 25 8 338 332 336 107 65 29 4 1 8 115 154 193 180 144 149 158 135 125 115 107 117 124 122 124 123 116 112 109 108 108 107 106 107 104 101 98 98 98 99 99 100 99 95 92 91 90 89 95 96 89 83 88 93 95 102 116 132 145 164 188 205 213 216 216 220 220 214 216 226 231 229 229 231 232 231 231 231
242 238 222 214 192 151 143 95 33 14 354 352 333 272 73 34 1 41 70 119 150 174 174 153 152 153 139 130 118 106 108 112 119 125 119 113 114 112 109 106 101 98 99 97 94 93 93 93 92 90 88 89 90 92 92 86 80 80 82 84 86 88 87 89 92 94 102 112 117 129 146 158 161 164 180 195 194 194 207 218 220 221 225 229 234 236 235
239 252 229 215 224 205 124 71 35 2 348 351 325 274 94 25 359 69 107 132 151 168 173 164 167 170 161 149 132 112 101 110 121 122 117 114 115 112 109 107 103 98 96 95 94 93 92 90 89 90 87 83 83 86 88 87 81 74 71 74 81 84 82 84 84 83 87 98 102 108 115 112 105 111 129 162 180 180 182 189 195 204 207 201 207 221 220
234 249 235 226 234 206 63 38 3 349 349 350 299 234 150 11 345 3 127 141 156 165 154 139 176 192 183 156 127 108 102 118 123 118 114 113 112 110 109 107 105 101 98 96 95 93 91 91 91 92 88 83 82 84 85 87 85 79 73 68 69 73 76 79 80 79 80 83 82 84 87 80 73 74 75 99 174 173 176 177 166 159 178 175 131 50 152
227 251 249 235 167 78 39 5 346 350 352 323 265 223 131 3 334 322 36 154 162 155 137 120 89 107 147 100 85 77 74 104 116 115 117 119 117 113 109 107 106 104 101 100 96 91 90 92 92 90 86 81 78 78 81 82 79 77 75 71 67 67 70 73 76 77 77 75 73 73 72 70 70 72 69 114 169 141 147 192 184 142 147 154 120 94 129
212 242 248 215 102 60 7 351 350 353 330 275 260 255 2 338 320 314 307 195 167 154 155 157 135 127 142 123 94 72 52 58 76 94 113 121 120 112 110 112 114 110 104 100 96 94 92 91 89 88 85 81 77 75 76 75 71 68 70 73 73 71 70 72 75 76 74 69 67 68 66 65 69 74 70 71 93 90 85 173 175 151 141 135 122 117 125
297 252 252 220 116 53 351 335 338 341 302 252 305 346 325 312 309 301 284 232 174 169 175 166 121 128 143 134 123 118 98 72 59 60 84 104 110 109 110 112 114 111 108 104 100 98 98 97 96 95 91 87 85 83 80 76 73 69 67 71 73 73 75 76 75 76 75 71 67 65 62 61 60 62 62 61 66 80 106 125 131 132 127 123 122 121 122
280 234 245 249 122 48 356 332 326 4 351 345 353 337 319 319 316 292 284 283 178 182 177 150 126 128 130 124 123 130 126 107 91 78 76 87 101 108 111 113 113 110 108 104 99 97 96 95 97 100 101 101 97 90 84 79 78 78 75 76 79 79 79 78 78 78 77 75 73 68 64 65 62 61 64 72 79 91 108 117 117 111 106 106 113 121 126
292 251 166 32 44 34 6 353 21 38 13 353 334 323 324 338 337 304 317 39 138 184 177 148 123 111 107 105 111 120 119 108 101 97 92 91 94 96 97 102 106 105 104 101 96 92 89 90 93 97 101 102 98 92 88 83 80 80 79 81 84 85 83 81 79 78 75 73 75 74 70 70 68 65 67 73 75 79 89 102 105 102 102 105 109 117 124
357 7 45 56 48 35 27 29 37 25 6 351 333 320 317 334 349 356 25 66 81 98 129 122 98 79 73 77 91 105 106 100 100 102 103 101 98 93 89 86 87 93 95 93 90 90 87 85 87 88 91 93 91 86 82 80 78 77 77 78 79 79 81 80 76 77 78 71 68 69 71 72 71 68 68 71 68 67 77 87 90 92 103 114 121 128 131
86 62 55 71 66 49 53 69 62 26 11 7 357 353 1 4 5 31 89 103 101 103 110 109 99 90 87 83 84 92 92 89 91 95 101 113 121 120 114 108 105 102 91 83 88 95 94 90 87 83 81 82 79 71 61 55 56 59 68 77 77 69 67 70 67 70 76 74 68 68 70 74 74 68 62 67 65 62 71 84 84 80 85 99 118 132 129
188 142 98 84 67 48 49 77 95 63 34 28 23 27 42 36 32 66 100 121 127 125 124 127 133 139 133 122 112 105 99 98 99 94 92 107 121 128 134 139 142 141 130 119 118 108 95 90 89 84 78 74 69 60 52 48 49 53 59 71 78 76 69 67 62 60 62 63 66 68 66 69 77 72 63 63 64 57 52 56 64 68 70 67 67 71 78
263 104 104 103 90 73 58 52 66 62 45 44 47 51 60 59 63 81 98 121 138 142 148 152 156 160 154 142 138 147 158 158 148 139 138 144 140 133 138 150 153 151 151 149 140 126 113 102 91 84 79 73 64 54 47 47 50 54 54 55 63 72 75 72 66 63 63 60 60 66 65 61 60 58 53 54 59 55 45 39 39 37 39 48 48 35 25
238 138 136 151 148 116 88 66 59 57 51 55 59 63 71 73 75 83 82 77 107 150 159 160 166 172 166 158 158 163 171 179 174 162 161 168 166 157 157 165 175 169 160 153 143 135 130 120 103 93 85 75 66 57 48 46 51 57 56 51 48 49 53 59 59 56 57 55 48 49 63 73 69 54 41 40 57 59 43 29 22 15 17 29 31 22 17
257 97 115 141 163 116 90 74 65 60 59 66 68 65 65 67 67 70 69 53 16 0 150 167 177 177 173 177 183 181 181 186 184 171 166 170 173 169 167 169 181 186 169 154 146 141 134 127 117 107 97 84 73 62 53 50 53 56 56 54 50 44 39 38 36 32 38 47 41 31 36 53 64 54 37 32 41 51 41 26 12 357 342 338 343 350 5
11 57 70 71 40 86 90 83 70 59 53 60 67 66 63 65 64 58 53 45 12 347 250 197 197 189 187 194 204 210 199 186 179 174 171 171 173 175 174 174 180 181 170 158 153 147 140 137 131 119 111 101 84 73 68 63 61 60 56 55 56 53 49 43 32 21 22 29 30 26 26 27 30 36 35 30 25 20 19 21 24 19 3 343 335 323 309
44 76 68 55 62 99 103 92 69 59 49 50 61 61 55 57 60 58 54 47 35 26 28 206 214 224 213 204 207 214 204 185 177 178 177 175 175 177 181 184 184 178 172 169 164 156 150 149 143 135 130 120 103 89 81 74 71 69 63 58 55 51 52 52 42 30 25 20 14 11 10 10 10 2 347 356 49 31 16 5 5 10 10 2 1 356 325
86 91 78 77 89 102 110 107 85 69 55 54 62 60 53 50 46 46 52 48 38 35 37 62 142 245 254 220 207 207 201 190 183 179 179 182 182 180 185 191 189 182 179 176 169 164 163 160 155 151 147 140 129 115 97 87 85 81 74 67 59 45 36 32 26 24 23 14 4 357 349 346 350 346 337 332 331 351 7 357 345 339 328 321 331 344 341
106 110 114 125 121 117 133 153 115 88 65 60 65 64 60 55 43 42 52 50 43 43 39 39 59 94 257 236 212 204 200 193 185 181 186 194 192 189 193 195 191 187 182 176 172 172 172 168 165 163 159 152 146 134 117 105 99 90 84 78 67 50 36 23 9 1 3 356 348 344 339 335 333 326 319 326 331 321 300 264 224 219 251 273 284 303 315
143 146 168 198 197 182 208 300 93 94 75 61 62 56 54 53 47 49 57 54 48 51 49 41 40 44 222 215 207 200 192 185 183 188 198 204 202 200 199 196 192 189 182 175 175 177 175 173 173 171 164 157 150 141 132 122 111 100 92 87 76 55 40 27 6 346 349 345 335 332 329 321 319 318 312 310 309 304 301 296 287 280 269 246 243 299 323
177 180 217 260 269 235 127 91 98 107 97 74 59 43 30 31 32 36 46 45 40 44 53 49 35 22 19 216 211 207 200 195 195 200 207 211 211 209 202 194 192 191 183 175 175 177 177 180 181 177 170 162 154 147 140 132 122 109 92 84 83 68 43 26 9 354 351 344 334 328 324 315 307 303 303 302 294 286 286 284 281 289 291 270 267 302 313
195 189 207 283 9 96 134 146 149 139 123 103 65 31 7 2 3 12 29 28 15 15 33 36 28 16 0 317 254 232 227 222 217 215 217 218 217 212 202 195 193 189 182 177 177 179 183 185 184 179 173 166 162 157 150 141 131 111 81 63 59 56 40 15 359 348 338 332 326 316 303 298 298 293 289 291 290 286 286 284 278 280 282 278 282 291 290
184 180 195 166 131 156 182 190 196 182 133 59 0 353 353 344 335 350 19 12 356 355 3 359 352 342 323 299 262 248 252 250 240 233 228 222 216 211 202 194 191 190 188 185 184 185 186 186 186 183 175 168 166 164 161 158 153 135 109 78 60 34 7 353 345 334 323 314 307 300 288 277 281 290 292 290 290 288 284 283 279 274 274 274 277 277 273
171 169 184 180 179 205 215 211 219 223 199 318 302 299 319 330 322 323 339 340 333 337 337 333 329 324 320 318 307 282 268 259 249 239 228 220 216 209 198 193 197 201 201 196 192 188 185 187 189 185 175 168 168 168 167 168 169 168 163 167 206 295 335 3 11 303 314 312 292 288 292 286 282 286 287 285 285 286 283 280 279 279 280 280 278 279 283
175 175 185 191 197 211 214 210 221 226 215 233 269 278 292 304 304 298 297 300 302 305 307 307 306 308 311 312 310 301 286 270 257 244 229 220 214 205 197 199 206 210 209 204 194 187 189 194 191 178 167 167 169 170 173 175 178 185 189 182 203 250 316 357 340 269 279 296 290 287 293 295 292 288 284 281 282 283 282 283 283 283 285 284 282 291 318
194 198 204 206 207 217 222 218 219 223 222 233 255 261 266 274 278 278 280 283 281 280 283 285 286 292 299 299 297 296 292 284 272 258 242 226 215 208 205 206 208 210 212 208 198 192 195 199 188 171 166 169 171 171 173 177 180 188 194 192 199 221 241 273 292 280 257 250 262 288 297 296 294 288 280 280 282 282 282 282 280 280 281 280 281 295 331
218 233 239 222 217 234 242 229 218 220 225 233 242 247 252 257 262 267 272 275 275 274 274 275 275 277 280 282 283 285 285 282 275 267 259 246 228 217 213 212 213 213 211 205 199 197 199 195 181 169 167 171 172 171 172 174 178 181 184 198 223 234 239 247 254 259 253 243 239 255 265 271 277 280 279 279 278 278 280 281 280 280 280 279 278 282 294
205 211 186 180 198 234 248 231 224 231 239 245 250 253 253 253 257 261 264 267 271 274 273 272 272 272 271 271 272 273 274 274 275 276 275 269 250 227 214 214 215 210 202 199 198 199 196 185 172 164 165 169 171 171 170 169 174 177 179 202 235 241 243 248 247 244 245 243 242 253 259 265 271 275 276 277 276 276 276 277 278 279 279 278 277 276 282
182 181 183 196 208 218 227 236 245 252 257 260 263 264 261 259 260 262 264 266 271 273 272 271 270 268 265 262 263 265 268 270 272 274 275 272 256 225 211 213 212 207 204 201 195 188 184 175 163 157 160 165 166 165 163 161 162 175 204 222 237 238 233 230 226 220 216 223 247 268 276 275 273 271 270 272 274 275 274 275 275 276 277 278 279 280 282
187 196 208 220 226 235 243 250 256 262 264 264 265 265 265 264 265 268 270 272 273 273 274 273 271 268 266 263 261 261 262 264 266 270 272 267 250 224 217 217 212 208 207 200 185 178 177 171 160 153 155 161 160 159 168 171 168 184 223 221 219 226 223 214 209 206 201 205 250 269 271 269 268 268 268 269 270 271 273 275 276 277 278 279 282 284 285
190 202 222 235 242 253 260 261 263 265 265 264 264 264 264 267 271 273 274 274 274 274 275 274 272 271 269 266 263 261 259 258 258 261 262 258 242 229 225 219 212 211 207 192 179 176 174 165 156 152 156 163 163 167 181 178 169 179 217 216 210 217 215 206 205 209 203 210 246 262 265 266 266 266 267 267 268 270 272 274 276 279 280 280 280 282 284
190 203 230 249 258 263 266 266 265 263 262 265 268 270 270 272 274 274 274 273 273 273 274 275 275 274 271 268 266 263 260 258 256 255 254 247 235 228 227 223 218 214 197 175 169 171 168 160 155 157 161 163 165 175 183 169 153 162 198 199 190 201 207 202 204 204 195 196 233 250 255 258 262 265 267 269 269 268 268 270 273 275 277 279 279 280 281
213 235 251 261 265 267 269 269 269 269 270 272 274 275 276 276 275 275 275 274 273 273 273 273 273 273 271 270 269 267 264 261 255 250 249 244 229 219 216 208 189 176 166 161 163 166 163 159 161 165 163 158 157 162 166 158 151 164 185 181 176 188 193 191 198 200 185 184 219 242 250 256 261 264 265 267 269 268 268 270 272 274 275 276 278 280 282
235 253 266 273 277 277 276 277 277 278 278 277 276 277 277 276 274 275 276 276 276 275 274 272 273 273 272 271 271 272 271 267 256 248 244 236 220 209 202 188 169 160 157 158 160 159 156 158 163 161 156 154 156 157 157 154 157 168 173 167 170 181 179 172 180 184 165 180 230 247 255 258 260 261 262 264 267 269 270 271 274 276 278 279 281 282 284
231 261 275 279 281 282 282 282 283 283 282 280 280 279 278 276 276 276 277 278 278 276 274 272 271 271 272 273 274 274 268 255 243 239 233 222 218 213 195 172 163 159 154 152 153 153 154 157 158 152 147 151 156 157 156 157 162 167 166 164 166 168 158 149 154 151 143 189 238 246 249 255 256 258 261 263 265 268 273 277 278 280 281 282 284 287 288
222 263 281 286 289 290 290 288 286 284 282 281 282 284 285 285 284 282 281 280 278 276 274 273 271 269 269 268 266 260 245 220 214 213 197 191 207 204 175 157 151 149 147 146 147 149 149 146 144 145 147 146 142 140 141 149 159 160 158 156 156 153 144 136 134 146 180 216 234 239 244 252 256 257 263 268 270 273 276 279 280 282 284 285 286 288 289
204 264 307 309 303 300 296 291 288 286 287 288 291 293 292 289 285 283 282 281 279 277 277 277 275 274 272 264 253 242 225 205 192 179 162 146 142 155 159 155 148 143 143 143 142 141 138 132 132 139 144 140 133 129 132 144 150 146 144 143 141 135 133 137 149 183 212 227 238 244 248 252 255 259 265 269 272 276 280 281 282 283 284 285 286 287 288
136 85 3 324 310 304 299 295 293 294 294 294 293 292 291 290 289 289 289 288 288 290 293 293 291 289 282 267 252 236 213 193 183 178 171 162 152 152 155 153 149 148 149 147 143 142 140 135 133 137 140 133 126 124 127 133 134 130 130 135 135 134 147 168 189 214 228 235 241 247 250 252 255 260 265 265 268 275 281 283 284 284 283 283 285 287 288
118 95 44 332 316 312 308 301 296 293 291 287 284 292 309 316 314 312 313 312 312 317 323 322 320 315 250 186 165 142 136 145 161 168 165 155 147 147 150 151 151 154 154 149 144 145 145 139 136 140 146 140 133 131 133 131 132 138 145 144 147 163 185 199 216 230 237 241 245 248 252 257 262 266 266 264 266 274 280 282 284 283 281 281 282 284 286
106 86 46 345 326 321 311 290 275 282 301 310 322 349 2 359 353 356 9 17 19 22 25 23 23 63 148 161 151 137 130 131 137 142 141 138 138 141 148 153 154 152 150 146 145 149 152 148 147 153 157 153 146 148 149 140 139 162 171 166 174 193 204 219 235 237 240 248 254 256 259 262 265 267 266 264 267 272 278 282 284 283 281 280 281 282 285
88 63 40 8 340 330 307 269 260 33 30 27 24 21 21 35 50 56 62 69 72 74 78 84 95 108 123 135 139 136 133 130 127 127 131 137 141 144 150 154 153 150 147 146 147 151 157 159 162 165 167 163 155 150 149 144 146 165 175 177 189 203 210 220 231 239 252 262 264 265 268 266 263 263 263 265 269 273 277 280 283 283 282 281 281 281 283
89 76 71 67 49 37 29 48 57 58 63 69 68 63 64 84 96 97 96 96 95 96 97 97 100 107 114 116 118 119 120 122 127 131 135 139 144 146 147 149 151 152 151 149 149 156 167 172 172 174 182 187 182 167 157 153 147 150 173 193 203 208 218 231 239 247 261 269 271 272 271 268 266 268 269 269 271 274 277 278 280 281 281 282 283 283 283
116 116 112 104 102 106 113 110 103 100 100 99 96 94 97 104 107 109 113 115 115 113 111 110 113 118 118 115 115 115 115 121 130 136 139 143 148 149 148 150 156 162 163 158 156 165 177 182 183 185 191 197 196 190 185 185 182 178 190 214 217 212 216 230 240 242 253 265 272 273 273 271 272 273 274 274 275 276 278 280 282 283 283 283 283 282 283
140 144 139 128 126 127 123 120 120 119 114 112 115 120 122 117 112 112 118 123 124 122 120 119 121 125 125 121 117 113 110 117 130 140 146 151 155 157 158 162 169 173 175 173 172 175 180 186 193 197 200 203 207 207 204 204 204 199 205 235 245 230 219 222 235 242 245 254 265 272 274 275 274 273 273 277 281 284 284 284 284 284 284 284 284 284 286
154 156 153 149 148 144 137 133 134 134 133 132 132 134 132 129 128 131 135 135 131 127 126 126 125 126 128 129 128 123 118 121 132 143 151 155 158 161 167 173 178 182 186 189 191 191 190 192 198 204 207 209 212 212 208 207 211 214 216 228 251 253 245 238 239 242 241 243 258 268 267 259 263 271 277 282 287 290 293 293 292 290 288 287 286 286 287